TFV04 VNKT-VQPR

Flight info

Callsign TFV04
Flight time 0h 56m
Altitude 35000
Route IGRIS1E KIMTI G348 SUBSU DCT TAKTI DCT PR798 DCT PR777 DCT PR848 DCT PR746 DCT PR714 DCT PR712 DCT PR710 DCT PR706 DCT PR708 DCT PR704
Aircraft B738/M-SDE2E3FGHIRWXY/LB1

Departure

Time 2026-05-07 19:29
Airport Tribhuvan International Airport (VNKT)

Arrival

Time 2026-05-07 20:26
Airport Paro International Airport (VQPR)
Time Latitude Longitude Altitude Speed Heading
2026-05-07 17:23 27.70111 85.35890 4374 ft 0 kts 292°
2026-05-07 19:15 27.70109 85.35897 4374 ft 3 kts 292°
2026-05-07 19:16 27.70102 85.35916 4368 ft 3 kts 292°
2026-05-07 19:16 27.70095 85.35934 4358 ft 3 kts 292°
2026-05-07 19:16 27.70089 85.35952 4364 ft 3 kts 292°
2026-05-07 19:16 27.70082 85.35970 4357 ft 3 kts 292°
2026-05-07 19:17 27.70078 85.35983 4360 ft 0 kts 292°
2026-05-07 19:19 27.70076 85.35975 4357 ft 4 kts 249°
2026-05-07 19:19 27.70022 85.35944 4367 ft 10 kts 197°
2026-05-07 19:20 27.69957 85.35923 4358 ft 10 kts 197°
2026-05-07 19:20 27.69888 85.35899 4354 ft 11 kts 200°
2026-05-07 19:20 27.69873 85.35892 4364 ft 1 kts 202°
2026-05-07 19:20 27.69866 85.35889 4363 ft 2 kts 202°
2026-05-07 19:21 27.69856 85.35884 4352 ft 0 kts 202°
2026-05-07 19:21 27.69855 85.35884 4353 ft 0 kts 202°
2026-05-07 19:22 27.69791 85.35855 4354 ft 24 kts 199°
2026-05-07 19:22 27.69701 85.35813 4349 ft 11 kts 202°
2026-05-07 19:22 27.69626 85.35780 4358 ft 12 kts 200°
2026-05-07 19:23 27.69536 85.35739 4353 ft 16 kts 199°
2026-05-07 19:23 27.69422 85.35686 4352 ft 20 kts 203°
2026-05-07 19:23 27.69341 85.35649 4344 ft 16 kts 199°
2026-05-07 19:23 27.69220 85.35594 4347 ft 10 kts 203°
2026-05-07 19:24 27.69153 85.35563 4339 ft 0 kts 202°
2026-05-07 19:24 27.69141 85.35557 4338 ft 3 kts 202°
2026-05-07 19:24 27.69116 85.35549 4337 ft 4 kts 190°
2026-05-07 19:24 27.69097 85.35553 4342 ft 0 kts 158°
2026-05-07 19:27 27.68998 85.35612 4339 ft 21 kts 195°
2026-05-07 19:27 27.68782 85.35514 4332 ft 47 kts 202°
2026-05-07 19:27 27.68489 85.35362 4324 ft 23 kts 231°
2026-05-07 19:28 27.68424 85.35310 4320 ft 7 kts 167°
2026-05-07 19:28 27.68415 85.35326 4321 ft 6 kts 95°
2026-05-07 19:28 27.68437 85.35364 4322 ft 5 kts 22°
2026-05-07 19:28 27.68540 85.35405 4327 ft 47 kts 19°
2026-05-07 19:29 27.69108 85.35656 4343 ft 125 kts 21°
2026-05-07 19:29 27.70116 85.36121 4414 ft 184 kts 23°
2026-05-07 19:29 27.71379 85.36725 4978 ft 209 kts 23°
2026-05-07 19:29 27.72698 85.37417 5787 ft 214 kts 31°
2026-05-07 19:30 27.73703 85.38682 6397 ft 224 kts 66°
2026-05-07 19:30 27.74076 85.40455 6735 ft 241 kts 88°
2026-05-07 19:30 27.74059 85.42371 7297 ft 247 kts 92°
2026-05-07 19:30 27.73750 85.44278 7965 ft 250 kts 113°
2026-05-07 19:31 27.72768 85.45892 8767 ft 251 kts 138°
2026-05-07 19:31 27.71287 85.46927 9647 ft 253 kts 158°
2026-05-07 19:31 27.69600 85.47698 10086 ft 275 kts 158°
2026-05-07 19:31 27.67748 85.48574 10329 ft 302 kts 155°
2026-05-07 19:32 27.65876 85.49842 10504 ft 328 kts 141°
2026-05-07 19:32 27.64247 85.51756 10845 ft 347 kts 126°
2026-05-07 19:32 27.63030 85.54135 11500 ft 353 kts 114°
2026-05-07 19:32 27.62266 85.56781 12255 ft 357 kts 105°
2026-05-07 19:33 27.61600 85.59458 12965 ft 361 kts 106°
2026-05-07 19:33 27.60892 85.62189 13679 ft 365 kts 106°
2026-05-07 19:33 27.60280 85.64990 14343 ft 370 kts 102°
2026-05-07 19:33 27.59785 85.67855 14958 ft 375 kts 101°
2026-05-07 19:34 27.59322 85.70765 15561 ft 380 kts 100°
2026-05-07 19:34 27.58854 85.73716 16180 ft 385 kts 101°
2026-05-07 19:34 27.58369 85.76703 16785 ft 390 kts 101°
2026-05-07 19:34 27.57868 85.79724 17379 ft 395 kts 101°
2026-05-07 19:35 27.57350 85.82789 17949 ft 400 kts 102°
2026-05-07 19:35 27.56820 85.85883 18534 ft 405 kts 102°
2026-05-07 19:35 27.56281 85.89010 19084 ft 408 kts 102°
2026-05-07 19:35 27.55738 85.92166 19676 ft 411 kts 102°
2026-05-07 19:36 27.55188 85.95345 20231 ft 415 kts 102°
2026-05-07 19:36 27.54639 85.98507 20790 ft 418 kts 102°
2026-05-07 19:36 27.54077 86.01743 21324 ft 422 kts 102°
2026-05-07 19:36 27.53510 86.05000 21854 ft 425 kts 103°
2026-05-07 19:37 27.52938 86.08282 22376 ft 428 kts 103°
2026-05-07 19:37 27.52360 86.11590 22863 ft 432 kts 103°
2026-05-07 19:37 27.51778 86.14924 23374 ft 435 kts 103°
2026-05-07 19:37 27.51191 86.18285 23848 ft 438 kts 103°
2026-05-07 19:38 27.50599 86.21666 24291 ft 441 kts 103°
2026-05-07 19:38 27.50010 86.25031 24707 ft 443 kts 103°
2026-05-07 19:38 27.49403 86.28448 25104 ft 446 kts 104°
2026-05-07 19:38 27.48759 86.31871 25528 ft 448 kts 104°
2026-05-07 19:39 27.48092 86.35312 25924 ft 451 kts 104°
2026-05-07 19:39 27.47414 86.38779 26282 ft 454 kts 104°
2026-05-07 19:39 27.46731 86.42268 26646 ft 457 kts 104°
2026-05-07 19:39 27.46057 86.45727 27030 ft 459 kts 104°
2026-05-07 19:40 27.45372 86.49259 27381 ft 461 kts 104°
2026-05-07 19:40 27.44684 86.52804 27733 ft 464 kts 104°
2026-05-07 19:40 27.43995 86.56360 28067 ft 466 kts 105°
2026-05-07 19:40 27.43301 86.59938 28395 ft 469 kts 104°
2026-05-07 19:41 27.42603 86.63529 28706 ft 471 kts 105°
2026-05-07 19:41 27.41899 86.67146 28984 ft 473 kts 105°
2026-05-07 19:41 27.41192 86.70772 29242 ft 475 kts 105°
2026-05-07 19:41 27.40481 86.74417 29558 ft 478 kts 105°
2026-05-07 19:42 27.39775 86.78031 29878 ft 480 kts 105°
2026-05-07 19:42 27.39047 86.81755 30156 ft 483 kts 105°
2026-05-07 19:42 27.38331 86.85405 30390 ft 485 kts 105°
2026-05-07 19:42 27.37600 86.89127 30579 ft 488 kts 105°
2026-05-07 19:43 27.36862 86.92880 30825 ft 491 kts 105°
2026-05-07 19:43 27.36126 86.96624 31143 ft 490 kts 105°
2026-05-07 19:43 27.35392 87.00354 31462 ft 489 kts 105°
2026-05-07 19:43 27.34647 87.04124 31619 ft 494 kts 106°
2026-05-07 19:44 27.33900 87.07900 31870 ft 496 kts 105°
2026-05-07 19:44 27.33149 87.11695 32150 ft 497 kts 105°
2026-05-07 19:44 27.32394 87.15494 32388 ft 498 kts 107°
2026-05-07 19:44 27.31405 87.19219 32605 ft 496 kts 115°
2026-05-07 19:45 27.29998 87.22683 32895 ft 490 kts 124°
2026-05-07 19:45 27.28208 87.25989 33211 ft 488 kts 127°
2026-05-07 19:45 27.26410 87.29180 33411 ft 490 kts 127°
2026-05-07 19:45 27.24563 87.32431 33619 ft 493 kts 127°
2026-05-07 19:46 27.22720 87.35692 33872 ft 493 kts 127°
2026-05-07 19:46 27.20889 87.38961 34101 ft 494 kts 127°
2026-05-07 19:46 27.19087 87.42204 34318 ft 494 kts 127°
2026-05-07 19:46 27.17249 87.45527 34572 ft 493 kts 127°
2026-05-07 19:47 27.13639 87.52066 34817 ft 498 kts 128°
2026-05-07 19:47 27.11814 87.55369 34993 ft 498 kts 129°
2026-05-07 19:47 27.09983 87.58676 34995 ft 499 kts 128°
2026-05-07 19:48 27.06313 87.65302 34988 ft 498 kts 128°
2026-05-07 19:48 27.02668 87.71875 34964 ft 494 kts 128°
2026-05-07 19:49 26.99040 87.78400 34968 ft 492 kts 128°
2026-05-07 19:49 26.95441 87.84863 34972 ft 491 kts 129°
2026-05-07 19:50 26.91811 87.91371 34956 ft 492 kts 129°
2026-05-07 19:50 26.88162 87.97902 34941 ft 495 kts 129°
2026-05-07 19:51 26.84494 88.04461 34910 ft 497 kts 129°
2026-05-07 19:51 26.80813 88.11042 34918 ft 498 kts 129°
2026-05-07 19:52 26.77144 88.17577 34897 ft 498 kts 129°
2026-05-07 19:52 26.74062 88.23115 34809 ft 502 kts 129°
2026-05-07 19:53 26.72280 88.26527 34204 ft 517 kts 120°
2026-05-07 19:53 26.71232 88.30420 33504 ft 531 kts 102°
2026-05-07 19:53 26.71180 88.34566 32803 ft 538 kts 85°
2026-05-07 19:53 26.72061 88.38626 32118 ft 539 kts 68°
2026-05-07 19:54 26.73802 88.42252 31572 ft 533 kts 57°
2026-05-07 19:54 26.75779 88.45734 31070 ft 527 kts 57°
2026-05-07 19:54 26.77765 88.49171 30557 ft 522 kts 57°
2026-05-07 19:54 26.79713 88.52580 30056 ft 517 kts 57°
2026-05-07 19:55 26.81617 88.55975 29464 ft 511 kts 58°
2026-05-07 19:55 26.83474 88.59343 28919 ft 505 kts 58°
2026-05-07 19:55 26.85292 88.62671 28408 ft 498 kts 58°
2026-05-07 19:55 26.87082 88.65962 27896 ft 491 kts 58°
2026-05-07 19:56 26.88848 88.69211 27381 ft 486 kts 58°
2026-05-07 19:56 26.90597 88.72423 26868 ft 480 kts 58°
2026-05-07 19:56 26.92328 88.75603 26384 ft 475 kts 58°
2026-05-07 19:56 26.94014 88.78699 25889 ft 465 kts 58°
2026-05-07 19:57 26.95673 88.81748 25407 ft 452 kts 58°
2026-05-07 19:57 26.97167 88.84792 24941 ft 439 kts 66°
2026-05-07 19:57 26.98210 88.87968 24557 ft 426 kts 75°
2026-05-07 19:57 26.98799 88.91160 24302 ft 412 kts 84°
2026-05-07 19:58 26.99139 88.94357 23916 ft 418 kts 85°
2026-05-07 19:58 26.99460 88.97654 23446 ft 430 kts 85°
2026-05-07 19:58 26.99783 89.00997 22879 ft 430 kts 84°
2026-05-07 19:58 27.00109 89.04276 22385 ft 427 kts 84°
2026-05-07 19:59 27.00444 89.07571 21896 ft 424 kts 84°
2026-05-07 19:59 27.00784 89.10852 21413 ft 422 kts 84°
2026-05-07 19:59 27.01125 89.14112 20927 ft 419 kts 84°
2026-05-07 19:59 27.01464 89.17353 20450 ft 417 kts 84°
2026-05-07 20:00 27.01800 89.20570 19993 ft 414 kts 84°
2026-05-07 20:00 27.02135 89.23783 19499 ft 414 kts 84°
2026-05-07 20:00 27.02469 89.26987 19001 ft 414 kts 84°
2026-05-07 20:00 27.02799 89.30181 18616 ft 409 kts 84°
2026-05-07 20:01 27.03126 89.33345 18180 ft 406 kts 83°
2026-05-07 20:01 27.03450 89.36484 17632 ft 405 kts 84°
2026-05-07 20:01 27.03772 89.39607 17176 ft 401 kts 83°
2026-05-07 20:01 27.04090 89.42695 16901 ft 393 kts 84°
2026-05-07 20:02 27.04394 89.45659 16738 ft 383 kts 84°
2026-05-07 20:02 27.04925 89.48544 16572 ft 375 kts 67°
2026-05-07 20:02 27.06251 89.50997 16393 ft 363 kts 46°
2026-05-07 20:02 27.08102 89.52815 16303 ft 347 kts 29°
2026-05-07 20:03 27.10287 89.53818 16076 ft 336 kts
2026-05-07 20:03 27.12614 89.53794 15490 ft 339 kts 351°
2026-05-07 20:03 27.14956 89.53410 14969 ft 342 kts 342°
2026-05-07 20:03 27.17233 89.52563 14407 ft 347 kts 341°
2026-05-07 20:04 27.19608 89.51924 13854 ft 353 kts 348°
2026-05-07 20:04 27.22080 89.51831 13254 ft 359 kts
2026-05-07 20:04 27.24507 89.52339 12737 ft 360 kts 11°
2026-05-07 20:04 27.26918 89.53127 12170 ft 364 kts 25°
2026-05-07 20:05 27.29216 89.54228 11953 ft 355 kts 11°
2026-05-07 20:05 27.31620 89.54191 11873 ft 340 kts 343°
2026-05-07 20:05 27.33630 89.52956 11877 ft 325 kts 315°
2026-05-07 20:05 27.34850 89.50911 11871 ft 312 kts 288°
2026-05-07 20:06 27.35019 89.48558 11843 ft 298 kts 264°
2026-05-07 20:06 27.35246 89.46218 10746 ft 313 kts 291°
2026-05-07 20:06 27.36650 89.44280 9384 ft 330 kts 329°
2026-05-07 20:06 27.38729 89.43263 8540 ft 323 kts 333°
2026-05-07 20:07 27.40567 89.42037 8651 ft 291 kts 328°
2026-05-07 20:07 27.42071 89.40751 9362 ft 246 kts 309°
2026-05-07 20:07 27.42848 89.39228 10170 ft 217 kts 284°
2026-05-07 20:07 27.43082 89.37541 10491 ft 218 kts 277°
2026-05-07 20:08 27.43327 89.35779 11199 ft 240 kts 281°
2026-05-07 20:08 27.43598 89.33865 11849 ft 257 kts 275°
2026-05-07 20:08 27.43482 89.31884 12821 ft 254 kts 257°
2026-05-07 20:08 27.42810 89.30002 13539 ft 268 kts 236°
2026-05-07 20:09 27.41416 89.28501 14079 ft 290 kts 212°
2026-05-07 20:09 27.39611 89.27368 14730 ft 303 kts 205°
2026-05-07 20:09 27.37553 89.26789 15640 ft 309 kts 188°
2026-05-07 20:10 27.33186 89.26782 16914 ft 339 kts 169°
2026-05-07 20:10 27.30831 89.27596 17193 ft 365 kts 162°
2026-05-07 20:10 27.28466 89.28584 18348 ft 360 kts 164°
2026-05-07 20:10 27.26042 89.29545 18734 ft 375 kts 164°
2026-05-07 20:11 27.23582 89.30610 19221 ft 383 kts 162°
2026-05-07 20:11 27.21103 89.31815 19403 ft 397 kts 155°
2026-05-07 20:11 27.18745 89.33591 19369 ft 419 kts 142°
2026-05-07 20:11 27.16748 89.36087 19317 ft 441 kts 127°
2026-05-07 20:12 27.15413 89.39149 20244 ft 427 kts 111°
2026-05-07 20:12 27.14661 89.42305 21413 ft 415 kts 100°
2026-05-07 20:12 27.14876 89.45464 21822 ft 417 kts 72°
2026-05-07 20:12 27.15919 89.48512 21339 ft 423 kts 63°
2026-05-07 20:13 27.17571 89.51260 20420 ft 430 kts 45°
2026-05-07 20:13 27.19823 89.53549 19171 ft 444 kts 35°
2026-05-07 20:13 27.22351 89.55474 18268 ft 436 kts 28°
2026-05-07 20:13 27.25071 89.56784 17716 ft 414 kts 12°
2026-05-07 20:14 27.27928 89.57499 16061 ft 427 kts 11°
2026-05-07 20:14 27.30828 89.58262 14740 ft 428 kts 12°
2026-05-07 20:14 27.33752 89.58372 14042 ft 413 kts 340°
2026-05-07 20:14 27.35501 89.56175 13760 ft 382 kts 279°
2026-05-07 20:15 27.34971 89.53339 12401 ft 378 kts 243°
2026-05-07 20:15 27.33690 89.50637 11389 ft 386 kts 249°
2026-05-07 20:15 27.33608 89.47822 11070 ft 354 kts 293°
2026-05-07 20:15 27.35278 89.45965 9046 ft 356 kts 343°
2026-05-07 20:16 27.37560 89.45095 8526 ft 326 kts 328°
2026-05-07 20:16 27.39052 89.43368 7926 ft 303 kts 319°
2026-05-07 20:16 27.40669 89.42184 8240 ft 252 kts 332°
2026-05-07 20:16 27.42002 89.41212 8622 ft 207 kts 312°
2026-05-07 20:17 27.42675 89.39920 8712 ft 185 kts 284°
2026-05-07 20:17 27.42859 89.38427 9155 ft 202 kts 266°
2026-05-07 20:17 27.42622 89.36830 9999 ft 208 kts 255°
2026-05-07 20:17 27.42078 89.35283 10776 ft 225 kts 236°
2026-05-07 20:18 27.40930 89.34131 11739 ft 211 kts 210°
2026-05-07 20:18 27.39694 89.33437 12980 ft 188 kts 200°
2026-05-07 20:18 27.38373 89.33172 13567 ft 209 kts 179°
2026-05-07 20:18 27.36785 89.33542 13561 ft 256 kts 159°
2026-05-07 20:19 27.35079 89.34415 13707 ft 281 kts 155°
2026-05-07 20:19 27.33409 89.35382 14147 ft 254 kts 153°
2026-05-07 20:19 27.31930 89.36261 14360 ft 232 kts 155°
2026-05-07 20:19 27.30508 89.37119 14161 ft 233 kts 150°
2026-05-07 20:20 27.29174 89.38130 14066 ft 225 kts 147°
2026-05-07 20:20 27.27822 89.39155 14009 ft 244 kts 148°
2026-05-07 20:20 27.26475 89.40385 14097 ft 256 kts 140°
2026-05-07 20:20 27.25216 89.41774 14531 ft 250 kts 133°
2026-05-07 20:21 27.24183 89.43470 14342 ft 279 kts 115°
2026-05-07 20:21 27.23568 89.45677 13664 ft 315 kts 101°
2026-05-07 20:21 27.23556 89.48248 12716 ft 334 kts 79°
2026-05-07 20:21 27.24271 89.50615 12791 ft 301 kts 65°
2026-05-07 20:22 27.25468 89.52543 12032 ft 302 kts 45°
2026-05-07 20:22 27.27133 89.53877 11596 ft 288 kts 25°
2026-05-07 20:22 27.28963 89.54685 11061 ft 278 kts 18°
2026-05-07 20:22 27.30714 89.55201 10875 ft 248 kts
2026-05-07 20:23 27.32268 89.54699 10413 ft 231 kts 322°
2026-05-07 20:23 27.33193 89.53262 9879 ft 228 kts 288°
2026-05-07 20:23 27.33276 89.51508 9276 ft 229 kts 259°
2026-05-07 20:23 27.32990 89.49787 8946 ft 212 kts 265°
2026-05-07 20:24 27.33299 89.48325 8781 ft 182 kts 301°
2026-05-07 20:24 27.34155 89.47445 8688 ft 151 kts 335°
2026-05-07 20:24 27.35119 89.47055 8594 ft 153 kts 341°
2026-05-07 20:24 27.36073 89.46621 8616 ft 151 kts 333°
2026-05-07 20:25 27.36966 89.45912 8437 ft 159 kts 317°
2026-05-07 20:25 27.37643 89.44917 8047 ft 162 kts 295°
2026-05-07 20:25 27.38211 89.43855 7632 ft 156 kts 310°
2026-05-07 20:25 27.39054 89.43263 7400 ft 134 kts 332°
2026-05-07 20:26 27.39825 89.42782 7303 ft 115 kts 332°
2026-05-07 20:26 27.40458 89.42385 7325 ft 92 kts 331°
2026-05-07 20:26 27.40707 89.42229 7337 ft 20 kts 331°
2026-05-07 20:26 27.40808 89.42166 7342 ft 8 kts 332°
2026-05-07 20:27 27.40838 89.42118 7342 ft 8 kts 272°
2026-05-07 20:27 27.40805 89.42071 7343 ft 8 kts 206°
2026-05-07 20:27 27.40753 89.42084 7341 ft 8 kts 148°
2026-05-07 20:27 27.40702 89.42115 7342 ft 5 kts 170°
2026-05-07 20:28 27.40674 89.42097 7339 ft 0 kts 246°